YD2CLX-14 Weather Reports


time (UTC)temp
F
wind
direction
speed
knots
gust
knots
rain 1hr
in
rain 24hr
in
rain mn
in
humidity
%
barometer
mb
20260502221053 62 162 2.6 2.6 0.00 0.00 0.00 90 806.4
20260502220552 62 162 2.6 2.6 0.00 0.00 0.00 92 806.4
20260502220057 62 162 2.6 2.6 0.00 0.00 0.00 91 806.4
20260502215552 62 162 2.6 2.6 0.00 0.00 0.00 91 806.4
20260502215053 62 162 2.6 2.6 0.00 0.00 0.00 91 806.4
20260502214552 62 162 2.6 2.6 0.00 0.00 0.00 91 806.4
20260502214052 62 162 2.6 2.6 0.00 0.00 0.00 92 806.4
20260502213552 62 162 2.6 2.6 0.00 0.00 0.00 92 806.4
20260502213055 62 162 2.6 2.6 0.00 0.00 0.00 92 806.4
20260502212552 61 170 2.6 2.6 0.00 0.00 0.00 92 806.3
20260502212053 61 170 2.6 2.6 0.00 0.00 0.00 92 806.3
20260502211553 61 170 2.6 2.6 0.00 0.00 0.00 92 806.3
20260502211053 62 170 2.6 2.6 0.00 0.00 0.00 92 806.3
20260502210552 62 170 2.6 2.6 0.00 0.00 0.00 91 806.3
20260502210056 62 170 2.6 2.6 0.00 0.00 0.00 92 806.2
20260502205552 62 170 2.6 2.6 0.00 0.00 0.00 92 806.2
20260502205053 61 170 2.6 2.6 0.00 0.00 0.00 92 806.2
20260502204552 62 170 2.6 2.6 0.00 0.00 0.00 92 806.3
20260502204053 62 170 2.6 2.6 0.00 0.00 0.00 92 806.3
20260502203552 62 170 2.6 2.6 0.00 0.00 0.00 92 806.3
20260502203054 62 170 2.6 2.6 0.00 0.00 0.00 91 806.3
20260502202552 62 172 2.6 2.6 0.00 0.00 0.00 92 806.3
20260502202053 62 172 2.6 2.6 0.00 0.00 0.00 91 806.4
20260502201552 62 172 2.6 2.6 0.00 0.00 0.00 91 806.4
20260502201053 62 172 2.6 2.6 0.00 0.00 0.00 91 806.5
20260502200552 62 172 2.6 2.6 0.00 0.00 0.00 91 806.6
20260502200057 63 172 2.6 2.6 0.00 0.00 0.00 91 806.6
20260502195552 63 172 2.6 2.6 0.00 0.00 0.00 91 806.6
20260502195053 63 172 2.6 2.6 0.00 0.00 0.00 92 806.6
20260502194553 63 172 2.6 2.6 0.00 0.00 0.00 92 806.7
20260502194053 63 172 2.6 2.6 0.00 0.00 0.00 92 806.7
20260502193552 62 172 2.6 2.6 0.00 0.00 0.00 92 806.7
20260502193055 62 172 2.6 2.6 0.00 0.00 0.00 91 806.6
20260502192552 62 175 2.6 2.6 0.00 0.00 0.00 91 806.6
20260502192053 62 175 2.6 2.6 0.00 0.00 0.00 91 806.7
20260502191553 62 175 2.6 2.6 0.00 0.00 0.00 91 806.7
20260502191053 62 175 2.6 2.6 0.00 0.00 0.00 91 806.7
20260502190552 63 175 2.6 2.6 0.00 0.00 0.00 91 806.8
20260502190055 63 175 2.6 2.6 0.00 0.00 0.00 91 806.9
20260502185552 62 175 2.6 2.6 0.00 0.00 0.00 91 806.8
20260502185052 63 175 2.6 2.6 0.00 0.00 0.00 90 806.8
20260502184553 63 175 2.6 2.6 0.00 0.00 0.00 90 806.7
20260502184053 63 175 2.6 2.6 0.00 0.00 0.00 90 806.8
20260502183552 64 182 1.7 1.7 0.00 0.00 0.00 91 806.8
20260502183054 63 175 2.6 2.6 0.00 0.00 0.00 91 806.8
20260502182552 63 182 1.7 1.7 0.00 0.00 0.00 90 806.9
20260502182052 63 182 1.7 1.7 0.00 0.00 0.00 91 806.9
20260502181553 63 182 1.7 1.7 0.00 0.00 0.00 91 806.9
20260502181053 63 182 1.7 1.7 0.00 0.00 0.00 89 807.0
20260502180552 63 182 1.7 1.7 0.00 0.00 0.00 90 807.0
20260502164053 63 182 0.9 0.9 0.00 0.00 0.00 90 807.6
20260502163552 63 166 0.9 0.9 0.00 0.00 0.00 90 807.6
20260502163053 63 182 0.9 0.9 0.00 0.00 0.00 90 807.7
20260502162552 63 166 0.9 0.9 0.00 0.00 0.00 90 807.7
20260502162052 63 166 0.9 0.9 0.00 0.00 0.00 90 807.8
20260502161552 63 166 0.9 0.9 0.00 0.00 0.00 90 807.8
20260502161052 63 166 0.9 0.9 0.00 0.00 0.00 90 807.9
20260502160552 64 166 0.9 0.9 0.01 0.00 0.00 91 808.0
20260502152051 64 165 1.7 1.7 0.01 0.00 0.00 90 807.6
20260502151552 64 165 1.7 1.7 0.00 0.00 0.00 89 807.7
20260502151014 64 165 1.7 1.7 0.00 0.00 0.00 89 807.8
20260502150515 64 165 1.7 1.7 0.00 0.00 0.00 90 807.8
20260502130515 65 92 17.4 43.4 0.00 0.00 0.00 90 808.0
20260502123516 65 92 17.4 43.4 0.00 0.00 0.00 91 807.5
20260502123015 64 92 17.4 43.4 0.00 0.00 0.00 90 807.5
20260502122514 64 92 17.4 43.4 0.00 0.00 0.00 91 807.4
20260502122014 65 92 17.4 43.4 0.00 0.00 0.00 91 807.3
20260502121514 65 92 17.4 43.4 0.00 0.00 0.00 90 807.1
20260502121014 65 92 17.4 43.4 0.00 0.00 0.00 90 806.9
20260502120514 65 92 17.4 43.4 0.00 0.00 0.00 90 806.8
20260502115514 65 92 17.4 43.4 0.00 0.00 0.00 89 806.8
20260502115014 65 92 17.4 43.4 0.00 0.00 0.00 89 806.8
20260502114514 66 92 17.4 43.4 0.00 0.00 0.00 89 806.7
20260502114015 66 92 17.4 43.4 0.00 0.00 0.00 88 806.8
20260502113514 66 92 17.4 43.4 0.00 0.00 0.00 88 806.8
20260502113015 66 92 17.4 43.4 0.00 0.00 0.00 89 806.8
20260502112515 65 92 17.4 43.4 0.00 0.00 0.00 89 806.8
20260502112015 65 92 17.4 43.4 0.00 0.00 0.00 90 806.8
20260502111515 65 92 17.4 43.4 0.00 0.00 0.00 90 806.7
20260502111015 65 92 17.4 43.4 0.00 0.00 0.00 87 806.6
20260502110514 66 92 17.4 43.4 0.00 0.00 0.00 91 806.5
20260502110016 66 92 17.4 43.4 0.00 0.00 0.00 89 806.4
20260502105515 66 92 17.4 43.4 0.00 0.00 0.00 90 806.3
20260502105014 66 92 17.4 43.4 0.00 0.00 0.00 88 806.4
20260502104514 66 209 1.7 1.7 0.00 0.00 0.00 89 806.3
20260502104014 66 209 1.7 1.7 0.00 0.00 0.00 90 806.2
20260502103514 65 209 1.7 1.7 0.00 0.00 0.00 90 806.1
20260502103014 66 241 0.9 1.7 0.00 0.00 0.00 90 806.1
20260502102514 66 241 0.9 1.7 0.00 0.00 0.00 89 806.2
20260502102014 66 241 0.9 1.7 0.00 0.00 0.00 89 806.2
20260502101515 66 241 0.9 1.7 0.00 0.00 0.00 89 806.1
20260502101014 66 241 0.9 1.7 0.00 0.00 0.00 88 806.0
20260502100515 66 92 17.4 43.4 0.00 0.00 0.00 89 806.0
20260502091514 67 92 17.4 43.4 0.00 0.00 0.00 89 805.9
20260502091014 67 92 17.4 43.4 0.00 0.00 0.00 89 805.8
20260502090514 67 92 17.4 43.4 0.00 0.00 0.00 88 805.7
20260502071514 71 92 17.4 43.4 0.00 0.00 0.00 84 805.7
20260502071014 74 92 17.4 43.4 0.00 0.00 0.00 79 805.8
20260502070515 78 92 17.4 43.4 0.00 0.00 0.00 77 805.9
20260502070018 80 92 17.4 43.4 0.00 0.00 0.00 76 805.8
20260502065515 77 92 17.4 43.4 0.00 0.00 0.00 80 805.9
20260502065015 74 92 17.4 43.4 0.00 0.00 0.00 78 806.0
20260502064515 74 92 17.4 43.4 0.00 0.00 0.00 78 806.0
20260502064015 75 92 17.4 43.4 0.00 0.00 0.00 78 806.1
20260502063515 76 92 17.4 43.4 0.00 0.00 0.00 76 806.2
20260502063016 77 92 17.4 43.4 0.00 0.00 0.00 77 806.3
20260502062515 76 92 17.4 43.4 0.00 0.00 0.00 82 806.4
20260502062014 72 92 17.4 43.4 0.00 0.00 0.00 84 806.5
20260502061515 71 92 17.4 43.4 0.00 0.00 0.00 84 806.6
20260502061014 71 92 17.4 43.4 0.00 0.00 0.00 83 806.7
20260502060515 72 92 17.4 43.4 0.00 0.00 0.00 81 806.7
20260502060020 75 92 17.4 43.4 0.00 0.00 0.00 79 806.7
20260502055515 79 92 17.4 43.4 0.00 0.00 0.00 74 806.8
20260502055015 80 92 17.4 43.4 0.00 0.00 0.00 75 806.9
20260502054514 79 92 17.4 43.4 0.00 0.00 0.00 73 807.0
20260502054015 78 92 17.4 43.4 0.00 0.00 0.00 76 807.0
20260502053515 75 92 17.4 43.4 0.00 0.00 0.00 82 807.1
20260502053014 74 92 17.4 43.4 0.00 0.00 0.00 77 807.1
20260502052515 74 92 17.4 43.4 0.00 0.00 0.00 76 807.2
20260502052015 76 92 17.4 43.4 0.00 0.00 0.00 76 807.2
20260502051514 76 92 17.4 43.4 0.00 0.00 0.00 76 807.2
20260502051014 77 92 17.4 43.4 0.00 0.00 0.00 76 807.2
20260502050515 78 92 17.4 43.4 0.00 0.00 0.00 72 807.3
20260502050017 75 92 17.4 43.4 0.00 0.00 0.00 79 807.4
20260502045514 74 92 17.4 43.4 0.00 0.00 0.00 80 807.4
20260502045014 76 92 17.4 43.4 0.00 0.00 0.00 80 807.5
20260502044515 76 92 17.4 43.4 0.00 0.00 0.00 81 807.6
20260502044014 73 92 17.4 43.4 0.00 0.00 0.00 81 807.6
20260502043514 71 92 17.4 43.4 0.00 0.00 0.00 82 807.7
20260502043014 71 92 17.4 43.4 0.00 0.00 0.00 83 807.8
20260502042514 72 92 17.4 43.4 0.00 0.00 0.00 82 807.7
20260502042014 73 92 17.4 43.4 0.00 0.00 0.00 82 807.8
20260502041514 71 330 0.9 2.6 0.00 0.00 0.00 85 807.9
20260502041015 70 330 0.9 2.6 0.00 0.00 0.00 84 807.9
20260502040514 70 330 0.9 2.6 0.00 0.00 0.00 86 808.0
20260502040015 71 330 0.9 2.6 0.00 0.00 0.00 83 808.0
20260502035514 70 330 0.9 2.6 0.00 0.00 0.00 87 808.0
20260502035014 69 330 0.9 2.6 0.00 0.00 0.00 85 808.1
20260502034514 69 330 0.9 2.6 0.00 0.00 0.00 86 808.1
20260502034015 69 330 0.9 2.6 0.00 0.00 0.00 89 808.2
20260502033515 68 330 0.9 2.6 0.00 0.00 0.00 87 808.2
20260502033014 69 330 0.9 2.6 0.00 0.00 0.00 86 808.2
20260502032514 70 92 17.4 43.4 0.00 0.00 0.00 83 808.2
20260502032015 71 92 17.4 43.4 0.00 0.00 0.00 82 808.3
20260502031514 73 92 17.4 43.4 0.00 0.00 0.00 78 808.3
20260502031014 77 3 0.9 2.6 0.00 0.00 0.00 77 808.3
20260502030515 79 3 0.9 2.6 0.00 0.00 0.00 75 808.3
20260502030014 76 3 0.9 2.6 0.00 0.00 0.00 80 808.3
20260502025515 75 3 0.9 2.6 0.00 0.00 0.00 81 808.4
20260502025028 76 3 0.9 2.6 0.00 0.00 0.00 78 808.4
20260502024528 79 3 0.9 2.6 0.00 0.00 0.00 75 808.3
20260502024028 78 3 0.9 2.6 0.00 0.00 0.00 75 808.3
20260502023528 76 3 0.9 2.6 0.00 0.00 0.00 78 808.4
20260502023028 74 82 0.0 1.7 0.00 0.00 0.00 80 808.3
20260502022528 74 82 0.0 1.7 0.00 0.00 0.00 79 808.3
20260502022028 74 82 0.0 1.7 0.00 0.00 0.00 82 808.2
20260502021528 75 82 0.0 1.7 0.00 0.00 0.00 79 808.3
20260502021029 73 82 0.0 1.7 0.00 0.00 0.00 79 808.2
20260502020528 74 82 0.0 1.7 0.00 0.00 0.00 74 808.2
20260502020028 76 82 0.0 1.7 0.00 0.00 0.00 71 808.2
20260502015529 76 82 0.0 1.7 0.00 0.00 0.00 74 808.3
20260502015028 78 82 0.0 1.7 0.00 0.00 0.00 70 808.2
20260502014529 82 82 0.0 1.7 0.00 0.00 0.00 69 808.2
20260502014028 83 82 0.0 1.7 0.00 0.00 0.00 67 808.1
20260502013529 85 82 0.0 1.7 0.00 0.00 0.00 60 808.0
20260502013029 83 142 0.9 1.7 0.00 0.00 0.00 68 807.9
20260502012529 81 142 0.9 1.7 0.00 0.00 0.00 63 807.9
20260502012028 81 142 0.9 1.7 0.00 0.00 0.00 67 807.8
20260502011529 80 142 0.9 1.7 0.00 0.00 0.00 66 807.8
20260502011028 78 142 0.9 1.7 0.00 0.00 0.00 74 807.8
20260502010529 75 142 0.9 1.7 0.00 0.00 0.00 77 807.8
20260502010028 76 142 0.9 1.7 0.00 0.00 0.00 73 807.8
20260502005529 76 142 0.9 1.7 0.00 0.00 0.00 76 807.7
20260502005029 76 142 0.9 1.7 0.00 0.00 0.00 71 807.8
20260502004529 77 142 0.9 1.7 0.00 0.00 0.00 71 807.7
20260502004028 77 142 0.9 1.7 0.00 0.00 0.00 73 807.7
20260502003529 75 142 0.9 1.7 0.00 0.00 0.00 77 807.6
20260502003028 74 136 1.7 2.6 0.00 0.00 0.00 69 807.6
20260502002529 73 136 1.7 2.6 0.00 0.00 0.00 73 807.6
20260502002028 72 136 1.7 2.6 0.00 0.00 0.00 77 807.5
20260502001529 70 136 1.7 2.6 0.00 0.00 0.00 81 807.6
20260502001028 69 136 1.7 2.6 0.00 0.00 0.00 79 807.5
20260502000529 69 136 1.7 2.6 0.00 0.00 0.00 77 807.5
20260502000029 67 137 1.7 2.6 0.00 0.00 0.00 81 807.4
20260501235528 66 137 1.7 2.6 0.00 0.00 0.00 83 807.3
20260501235029 64 137 1.7 2.6 0.00 0.00 0.00 89 807.3
20260501234528 63 137 1.7 2.6 0.00 0.00 0.00 88 807.1
20260501234029 62 137 1.7 2.6 0.00 0.00 0.00 89 807.1
20260501233529 62 137 1.7 2.6 0.00 0.00 0.00 89 807.0
20260501233028 62 149 2.6 3.5 0.00 0.00 0.00 89 807.0
20260501232528 62 149 2.6 3.5 0.00 0.00 0.00 90 806.9
20260501232028 62 149 2.6 3.5 0.00 0.00 0.00 90 806.9
20260501231528 61 149 2.6 3.5 0.00 0.00 0.00 91 806.9
20260501231028 61 149 2.6 3.5 0.00 0.00 0.00 90 806.9
20260501230528 61 149 2.6 3.5 0.00 0.00 0.00 90 806.9
20260501230028 61 149 2.6 3.5 0.00 0.00 0.00 90 806.8
20260501225528 61 149 2.6 3.5 0.00 0.00 0.00 91 806.7
20260501225028 61 149 2.6 3.5 0.00 0.00 0.00 92 806.6
20260501224529 61 149 2.6 3.5 0.00 0.00 0.00 92 806.6
20260501224029 61 149 2.6 3.5 0.00 0.00 0.00 91 806.7
20260501223529 61 157 2.6 2.6 0.00 0.00 0.00 92 806.7
20260501223029 61 149 2.6 3.5 0.00 0.00 0.00 91 806.7
20260501222529 61 157 2.6 2.6 0.00 0.00 0.00 92 806.7
20260501222028 61 157 2.6 2.6 0.00 0.00 0.00 92 806.7
20260501221528 61 157 2.6 2.6 0.00 0.00 0.00 92 806.7